User: anonymous   Login
Location: Roc des P�zouls
(43.9667°N, 3.5500°E)
Time: 11:55:53
(UTC+00:00)
Language:

Cosmos 2322 Rocket - Orbit

View from above orbital plane
View from above orbital plane
View from above satellite
View from above satellite

Ground track
Ground track

The orbit data is extracted from the following two-line orbital elements,

1 23705U 95058B   20020.86455996 -.00000100  00000-0 -26711-4 0  9994
2 23705  71.0208 200.7112 0014828 290.0440  69.9087 14.15135836251253
Epoch (UTC): 20 January 2020 20:44:57
Eccentricity: 0.0014828
inclination: 71.0208°
perigee height: 831 km
apogee height: 852 km
right ascension of ascending node: 200.7112°
argument of perigee: 290.0440°
revolutions per day: 14.15135836
mean anomaly at epoch: 69.9087°
orbit number at epoch: 25125

The dashed part of the orbit path shows where the satellite is in the earth's shadow,  

DLR